Regional Weather Roundup
Issued by NWS

Home | Current Version | Previous Version | Text Only | Print | Product List | Glossary Off
Versions: 1 2 3 4 5 6 7 8 9 10 11 12 13 14 15 16 17 18 19 20 21 22 23 24 25 26 27 28 29 30 31 32 33 34 35 36 37 38 39 40 41 42 43 44 45 46 47 48 49 50

000
ASUS43 KMKX 302014
RWRWI

WISCONSIN REGIONAL WEATHER ROUNDUP
NATIONAL WEATHER SERVICE MILWAUKEE/SULLIVAN WI
300 PM CDT SAT MAY 30 2015

NOTE: "FAIR" INDICATES FEW OR NO CLOUDS BELOW 12,000 FEET WITH NO
SIGNIFICANT WEATHER AND/OR OBSTRUCTIONS TO VISIBILITY.

WIZ001-002-006>008-014>016-023>028-302100-
NORTHWEST WISCONSIN

CITY           SKY/WX    TMP DP  RH WIND       PRES   REMARKS
SUPERIOR ARPT  SUNNY     53  37  53 NE8       30.30S
ASHLAND        SUNNY     53  37  54 NE14G21   30.32R
HAYWARD        MOSUNNY   55  37  50 NE13G20   30.27S
SIREN          PTSUNNY   58  38  46 NE10G17   30.26S
CUMBERLAND     PTSUNNY   55  39  54 NE14      30.25S
RICE LAKE      PTSUNNY   57  38  49 N14G20    30.26S
CHETEK         PTSUNNY   57  42  57 N9G17     30.25S
LADYSMITH      PTSUNNY   56  42  58 NE10G16   30.26S
EAU CLAIRE     CLOUDY    58  44  60 N14       30.21F
MENOMONIE      CLOUDY    57  43  58 NE13      30.24S
NEW RICHMOND   MOSUNNY   58  41  52 NE9       30.25R
OSCEOLA        PTSUNNY   60  42  51 NE10      30.27S
$$

WIZ003>005-009-010-017-018-302100-
NORTH CENTRAL WISCONSIN

CITY           SKY/WX    TMP DP  RH WIND       PRES   REMARKS
MANITOWISH WTR PTSUNNY   49  38  66 N7        30.26S
ARBOR VITAE    MOSUNNY   54  38  56 N16G23    30.25S
WOODRUFF       MOSUNNY   54  38  56 N16G23    30.25S
RHINELANDER    CLOUDY    52  39  61 NE10G18   30.24S
EAGLE RIVER    PTSUNNY   53  35  51 N14       30.23F
LAND O LAKES   MOSUNNY   51  32  48 N10G20    30.26S
PHILLIPS       PTSUNNY   53  40  61 NE12G18   30.25R
TOMAHAWK       PTSUNNY   53  39  59 NE9G20    30.24R
MEDFORD        PTSUNNY   57  44  60 N10G17    30.21S
MERRILL        CLOUDY    56  44  64 N15       30.22R
$$

WIZ029-030-035-036-043>047-302100-
CENTRAL WISCONSIN

CITY           SKY/WX    TMP DP  RH WIND       PRES   REMARKS
WAUSAU         CLOUDY    59  41  51 N12       30.18S
MOSINEE        CLOUDY    55  46  71 NE9       30.20R
MARSHFIELD     CLOUDY    59  46  62 NE10      30.19R
STEVENS POINT  CLOUDY    55  44  66 NE13      30.20R
WAUPACA        CLOUDY    58  48  69 NE9       30.19R
WAUTOMA        CLOUDY    55  50  83 E8        30.19R
WISC RAPIDS    CLOUDY    59  45  59 NE13      30.20S
CAMP DOUGLAS   CLOUDY    55  55 100 E9        30.17S
$$

WIZ011>013-019>022-031-037>040-048>050-302100-
NORTHEAST WISCONSIN

CITY           SKY/WX    TMP DP  RH WIND       PRES   REMARKS
ANTIGO         CLOUDY    54  43  68 NE13      30.21S
SHAWANO        CLOUDY    58  45  61 NE14      30.19S
OCONTO         CLOUDY    54  45  72 NE7       30.19R
STURGEON BAY   CLOUDY    50  39  66 N16G23    30.22S
GREEN BAY      CLOUDY    55  47  74 NE13      30.19R
MANITOWOC      CLOUDY    50  47  89 NE6       30.18R
APPLETON       CLOUDY    54  48  82 NE13      30.18S
CLINTONVILLE   CLOUDY    55  43  62 NE8G18    30.19R
OSHKOSH        CLOUDY    53  46  77 NE12      30.17S
$$

WIZ032>034-041-042-053>061-302100-
SOUTHWEST WISCONSIN

CITY           SKY/WX    TMP DP  RH WIND       PRES   REMARKS
LA CROSSE      CLOUDY    61  50  67 N12       30.17S
SPARTA         LGT RAIN  55  53  91 NE7       30.19R
VIROQUA        CLOUDY    55  55 100 NE13      30.17R
BOSCOBEL       CLOUDY    60  52  74 NE9G17    30.14S
PRAIRIE DU CHI CLOUDY    58  51  79 NE8       30.14R
PLATTEVILLE    CLOUDY    56  52  87 NE20G25   30.11S
$$

WIZ056-057-062-063-064-067-068-302100-
SOUTH CENTRAL WISCONSIN

CITY           SKY/WX    TMP DP  RH WIND       PRES   REMARKS
REEDSBURG      CLOUDY    55  47  75 NE16G22   30.16S
BARABOO/DELLS  CLOUDY    51  48  90 NE9G17    30.17R
LONE ROCK      CLOUDY    56  50  80 NE14G21   30.16R
MINERAL POINT  CLOUDY    55  52  88 NE15      30.12S
MADISON        CLOUDY    53  47  79 NE22G29   30.14R
MIDDLETON      CLOUDY    53  51  90 NE20      30.15R
WATERTOWN      CLOUDY   N/A N/A N/A NE12G20   30.14R
MONROE         CLOUDY    52  50  93 N23       30.10R
JANESVILLE     DRIZZLE   54  52  94 NE20G28   30.10S
$$

WIZ051-052-058>065-066-070>072-302100-
SOUTHEAST WISCONSIN

CITY           SKY/WX    TMP DP  RH WIND       PRES   REMARKS
MILWAUKEE      RAIN      47  44  90 N25G36    30.12R FOG
WAUKESHA       RAIN      46  45  93 N13G28    30.14R
MILWAUKEE/TIMM LGT RAIN  46  45  93 N20       30.14S
RACINE         RAIN      46  43  89 N24G36    30.12R FOG
BURLINGTON     LGT RAIN  48  46  93 NE20G28   30.10S
KENOSHA        LGT RAIN  48  46  93 N21G32    30.09S
FOND DU LAC    LGT RAIN  51  46  83 NE15G22   30.17S
SHEBOYGAN      CLOUDY    49  44  83 NE17G23   30.16S
WEST BEND      LGT RAIN  46  43  87 NE15G24   30.15S
JUNEAU         RAIN      49  47  94 N9        30.16S
$$

LSZ147-162-302100-
LAKE SUPERIOR

STATION/POSITION TIME  TEMP    WIND        PRES    WAVE
                       AIR SEA DIR/SP/G            HT/PER
                 (UTC) (F)     (DEG/KT/KT) (MB)    (FT/S)
W MID LAKE BUOY  1950   39 37  150/  4/  4   N/A     1/ 4
DEVILS ISLAND    2000   44     130/ 13/ 15   N/A
PORT WING        1940   48      20/ 12/ 14   N/A
SAXON HARBOR     1940   45      50/ 11/ 15   N/A
$$

LMZ867-665-643>646-302100-
LAKE MICHIGAN

STATION/POSITION TIME  TEMP    WIND        PRES    WAVE
                       AIR SEA DIR/SP/G            HT/PER
                 (UTC) (F)     (DEG/KT/KT) (MB)    (FT/S)
CHAMBERS ISLAND  1900   51     360/ 17/ 19   N/A
N MID LAKE BUOY  1950   43 37  330/ 12/ 14   N/A     2/ 4
NORTHPORT PIER   1914   50     350/ 21/ 25   N/A
SISTER BAY       1948   51     350/ 22/ 29   N/A
ALGOMA LAKESHORE 1908           10/ 13/ 18   N/A
KEWAUNEE LAKESHO 1900   47      30/  8/ 10   N/A
SHEBOYGAN LAKESH 2000   45      20/ 19/ 21   N/A
PORT WASHINGTON  1940   48      20/ 10/ 20   N/A
ATWATER BUOY     1900   47      30/ 25/ 31   N/A
MILWAUKEE LAKESH 1900   46     360/ 21/ 26   N/A
S MID LAKE BUOY  1950   42 38  360/ 23/ 27   N/A     6/ 6
KENOSHA   LAKESH 2000   46      10/ 31/ 39   N/A
$$

TC  - TEMPERATURE IN CELSIUS
VSB - VISIBILITY IN STATUTE MILES
WCI - WIND CHILL INDEX
HX  - HEAT INDEX




USA.gov is the U.S. government's official web portal to all federal, state and local government web resources and services.